Regional Weather Roundup
Issued by NWS Grand Forks, ND

Home | Current Version | Previous Version | Graphics & Text | Print | Product List | Glossary On
Versions: 1 2 3 4 5 6 7 8 9 10 11 12 13 14 15 16 17 18 19 20 21 22 23 24 25 26 27 28 29 30 31 32 33 34 35 36 37 38 39 40 41 42 43 44 45 46 47 48 49 50
312
ASUS43 KFGF 272010
RWRFGF
PRAIRIE TO PINES  WEATHER ROUNDUP
NATIONAL WEATHER SERVICE EASTERN NORTH DAKOTA/GRAND FORKS ND
300 PM CDT TUE SEP 27 2016

 **SATELLITE DATA USED TO AUGMENT SKY COVER AT AUTOMATED STATIONS**
 *****  WEATHER ACROSS EASTERN NORTH DAKOTA  *****

CITY           SKY/WX    TMP DP  RH WIND       PRES   REMARKS
GRAND FORKS    MOSUNNY   59  43  55 N16G25    29.89S
GRAND FRKS AFB SUNNY     60  45  56 N13G20    29.89S
GRAND FRKS NWS   N/A     57 N/A N/A N10         N/A
DEVILS LAKE    SUNNY     63  31  30 N18       29.92F
FARGO          SUNNY     65  42  43 N16       29.86S
WAHPETON ARPT  CLEAR     64  32  29 NW20G29   29.85F
$$

 ***** WEATHER ACROSS CENTRAL AND WESTERN NORTH DAKOTA  *****

CITY           SKY/WX    TMP DP  RH WIND       PRES   REMARKS
BISMARCK       SUNNY     71  40  32 VRB3      29.95F
MINOT          SUNNY     70  39  32 N7        29.94F
JAMESTOWN      SUNNY     66  31  27 N14G25    29.91S
MINOT AFB      SUNNY     68  40  34 VRB1      29.93F
GARRISON         N/A     70  42  36 S8        29.94F
WILLISTON      SUNNY     75  51  43 VRB6      29.92F
DICKINSON      SUNNY     76  44  32 W7        29.94F
HETTINGER      SUNNY     79  46  31 NW6       29.97F
$$

 *****  OTHER AIRPORT OBSERVATIONS IN OUR AREA  *****

CITY           SKY/WX    TMP DP  RH WIND       PRES   REMARKS
WALHALLA       FAIR      57  55  94 N17G23    29.91F
GRAFTON AIRPOR FAIR      57  45  62 NW18      29.92R
VALLEY CITY AR FAIR      64  32  29 NW17G28   29.91F
CANDO          FAIR      66  27  22 N14G21    29.95S
CAVALIER APRT  FAIR      57  43  58 N17G24    29.90F
GWINNER        FAIR      68  32  26 NW18      29.89S
SHEYENNE NWR     N/A     67  31  26 NW14      29.95S
ROLLA          FAIR      64  28  25 NW16G23   29.95S
 ***** THE ABOVE OBSERVATIONS ARE NON NWS ARE NOT QUALITY
       CONTROLLED AND MAY MIS-REPORT RAIN FOR SNOW...
$$

  *****  WEATHER ACROSS NORTHERN MINNESOTA  *****

CITY           SKY/WX    TMP DP  RH WIND       PRES   REMARKS
FLAG ISLAND    PTSUNNY   48  43  81 N17       29.84R
WARROAD        CLOUDY    48  45  87 NW8       29.87R
ROSEAU         CLOUDY    52  43  71 N12       29.86R
HALLOCK        CLOUDY    55  45  67 N18       29.89R
THF RVR FALLS  CLOUDY    52  44  74 NW16G24   29.87S
BAUDETTE       LGT RAIN  48  45  89 N14       29.83R
WASKISH        CLOUDY    46  45  93 N6        29.83R
CROOKSTON      CLOUDY    55  43  62 N18G28    29.89S
GREENBUSH NDAW   N/A     52  45  76 N16         N/A
$$
  *****  WEATHER ACROSS CENTRAL AND WEST MINNESOTA  *****

CITY           SKY/WX    TMP DP  RH WIND       PRES   REMARKS
FOSSTON        CLOUDY    48  41  76 NW14G20   29.86S
BEMIDJI        RAIN      47  45  95 NW15G23   29.83R
PARK RAPIDS    LGT RAIN  50  42  74 NW17      29.83R
ELBOW LAKE     FAIR      60  39  45 W15G22    29.85S
WADENA         CLOUDY    52  41  66 NW14G22   29.83F
DETROIT LAKES  CLOUDY    54  43  66 N20G26    29.87S
MOORHEAD       SUNNY     63  43  48 N16G24    29.87S
FERGUS FALLS   CLOUDY    61  41  48 NW16G23   29.87S
MORRIS MN      SUNNY     66  32  28 NW23G29   29.83S
STAPLES        CLOUDY    50  39  66 NW12G23   29.83S
$$
  *****  WEATHER ELSEWHERE ACROSS MINNESOTA  *****

CITY           SKY/WX    TMP DP  RH WIND       PRES   REMARKS
DULUTH         LGT RAIN  48  46  93 NW13G23   29.71S
INTRNTL FALLS  CLOUDY    51  45  79 N16       29.79R
ELY            CLOUDY    46  43  87 NW7       29.72R
CLOQUET        LGT RAIN  48  43  81 NW15G23   29.74R
WHEATON        NOT AVBL
BRAINERD       LGT RAIN  50  46  86 NW10      29.81S
HIBBING        LGT RAIN  45  43  93 N12       29.75R
ALEXANDRIA     CLOUDY    57  39  51 NW12G22   29.85R
SAINT CLOUD    CLOUDY    55  43  63 NW16      29.81R
MINNEAPOLIS    CLOUDY    59  41  51 NW15G25   29.78S
$$

  *****  WEATHER ACROSS SOUTH DAKOTA  *****

CITY           SKY/WX    TMP DP  RH WIND       PRES   REMARKS
SIOUX FALLS    MOSUNNY   73  43  33 NW17G28   29.89F
BROOKINGS      SUNNY     68  39  34 NW20G25   29.88F
WATERTOWN      SUNNY     69  37  30 NW17G24   29.88F
HURON          SUNNY     77  42  28 NW13G21   29.88F
SISSETON         N/A     70  30  22 N17G26    29.85F
ABERDEEN       SUNNY     74  37  26 N16G22    29.90F
MITCHELL       SUNNY     78  41  26 N17G25    29.89F
PIERRE         SUNNY     79  43  27 NW15      29.91F
MOBRIDGE       SUNNY     78  43  28 N7        29.90F
RAPID CITY     SUNNY     82  44  26 N13       30.00F
$$

  *****  SOME WEATHER IN NEARBY STATES *****

CITY           SKY/WX    TMP DP  RH WIND       PRES   REMARKS
GLASGOW MT     SUNNY     81  49  32 SW10      29.91F
GREAT FALLS MT SUNNY     82  39  21 SW14      30.01F
CHEYENNE WY    SUNNY     79  21  11 N9        30.20F
SCOTTSBLUFF NE SUNNY     81  39  22 VRB6      30.08F
OMAHA NE       SUNNY     78  43  28 W12       29.91F
DES MOINES IA  MOSUNNY   76  41  28 W22G28    29.85F
DAVENPORT IA   SUNNY     72  29  20 W18G31    29.81F
CHICAGO IL     PTSUNNY   68  34  28 W20G30    29.74F
EAU CLAIRE WI  LGT RAIN  51  47  86 W14       29.75R
LA CROSSE WI   PTSUNNY   65  44  46 NW13      29.74F
$$

  *****  SOME NATIONAL WEATHER *****

CITY           SKY/WX    TMP DP  RH WIND       PRES   REMARKS
LA GUARDIA NY  PTSUNNY   75  54  47 VRB7      29.87F
RALEIGH NC     PTSUNNY   77  69  76 E3        29.90F
ATLANTA GA     PTSUNNY   87  65  47 VRB7      29.90F
NEW ORLEANS LA MOSUNNY   90  72  55 N9        29.92F HX  97
OKLAHOMA CITY  MOSUNNY   79  46  31 SW7       30.05F
ALBUQUERQUE NM PTSUNNY   74  32  21 CALM      30.25F
SALT LAKE CITY MOSUNNY   75  48  38 N6        30.17F
LOS ANGELES CA PTSUNNY   93  43  17 W8        29.83F
BOISE ID       SUNNY     78  45  30 N7        30.07F
SEATTLE WA     MOSUNNY   68  45  43 N10       30.20S
$$

*** WEATHER ACROSS MANITOBA...SASKATCHEWAN AND ONTARIO ***
                ***ONTARIO***

CITY           SKY/WX    TMP DP  RH WIND       PRES   REMARKS
GERALDTON      PTSUNNY   54  50  87 NE13G20   29.63R
THUNDER BAY    PTSUNNY   57  48  72 N8        29.60R
SIOUX LOOKOUT  DRIZZLE   48  46  93 N7G18     29.77R
TORONTO        MOSUNNY   72  41  33 SW18G26   29.73S
BIG TROUT LK   CLOUDY    54  52  94 E5        29.87R
PICKLE LAKE    PTSUNNY   54  52  94 NE8       29.76R
DRYDEN         CLOUDY    50  46  87 N12G18    29.79R
KENORA         LGT RAIN  46  45  93 N10G21    29.84R
$$
                *** MANITOBA***

CITY           SKY/WX    TMP DP  RH WIND       PRES   REMARKS
BRANDON        SUNNY     66  34  30 NW13      29.94S
DAUPHIN          N/A     61  41  48 NE7       29.96S
ISLAND LAKE    CLOUDY    48  45  87 N5        29.95R
PILOT MOUND      N/A     59  34  38 N16         N/A
THE PAS        PTSUNNY   57  43  58 N6        29.95F
THOMPSON       CLOUDY    46  39  76 VRB6      29.99F
WINNIPEG       PTSUNNY   55  45  67 NE15      29.91R
LYNN LAKE      CLOUDY    41  39  93 SE8       29.96F
CHURCHILL      CLOUDY    43  43 100 NE13      30.02S
GILLAM         CLOUDY    45  43  93 NE8       29.98S
$$
                ***SASKATCHEWAN***

CITY           SKY/WX    TMP DP  RH WIND       PRES   REMARKS
ESTEVAN        MOSUNNY   73  45  35 E8        29.93F
KINDERSLEY     MOSUNNY   68  45  42 NW18G28   29.89R
LLOYDMINSTER   NOT AVBL
PRINCE ALBERT  MOSUNNY   70  45  40 S13       29.84F
REGINA         MOSUNNY   75  48  38 SE16      29.87F
YORKTON        SUNNY     66  41  39 S3        29.93F
N. BATTLEFORD  SUNNY     66  45  45 NW17G23   29.88R
LA RONGE       MOSUNNY   66  45  45 SE13      29.84F
SASKATOON      MOSUNNY   73  48  40 S12       29.83R
SWIFT CURRENT  SUNNY     81  43  26 W15G21    29.86S
$$
NOTE: THESE ARE AUTOMATED STATIONS WITH LIMITED QUALITY CONTROL
      "FAIR" INDICATES FEW OR NO CLOUDS BELOW 12,000 FEET WITH NO
      SIGNIFICANT WEATHER AND/OR OBSTRUCTIONS TO VISIBILITY.
      SKY/WX - SKY CONDITION AND SIGNIFICANT WEATHER.
      TMP - AIR TEMPERATURE.    DP   - DEWPOINT TEMPERATURE.
      RH  - RELATIVE HUMIDITY.  PRES - PRESSURE.
      HX  - HEAT INDEX.         WCI  - WIND CHILL INDEX.
$




USA.gov is the U.S. government's official web portal to all federal, state and local government web resources and services.